Вернуться в каталог

ICEYE-X57

АктивенНаукаSSO
NORAD 64578·PAYLOAD·🇺🇸 United States

Запущен Jun 23, 2025 с Vandenberg Space Force Base

Loading…

Ближайшие Пролёты (ближайшие 24 часа)

TLE

СвежийSource: Space-Track

Эпоха: Sep 14, 2026, 17:42 UTC

1 64578U 25135BC  26257.73788752  .00003632  00000-0  29055-3 0  9993
2 64578  97.8198  14.5893 0001880  50.5635 309.5755 15.00842730 67451

Отслеживайте ICEYE-X57 в реальном времени с AllMySat

Download on the App Store